Location: Stanford
(52.2833°N, 2.4333°W)
Time: 18:28:32
(UTC+00:00)

Cosmos 1844 Rocket - Pass Details

Date: 22 January 2021
Orbit: 825 x 843 km, 71.0° (Epoch: 26 February)

Event Time Altitude Azimuth Distance (km) Brightness Sun altitude
Rises 19:17:49 0° 221° (SW) 3,392 6.5 -23.8°
Reaches altitude 10° 19:20:17 10° 225° (SW) 2,459 5.7 -24.2°
Maximum altitude 19:25:53 61° 306° (NW) 953 3.1 -25.1°
Enters shadow 19:28:42 29° 16° (NNE) 1,491 3.8 -25.5°
